Regional Weather Roundup
Issued by NWS

Home | Current Version | Previous Version | Text Only | Print | Product List | Glossary On
Versions: 1 2 3 4 5 6 7 8 9 10 11 12 13 14 15 16 17 18 19 20 21 22 23 24 25 26 27 28 29 30 31 32 33 34 35 36 37 38 39 40 41 42 43 44 45 46 47 48 49 50
000
ASUS42 KFFC 211010
RWRGA
WEATHER ROUNDUP FOR GEORGIA
NATIONAL WEATHER SERVICE PEACHTREE CITY GA
600 AM EDT MON MAY 21 2018

NOTE: "FAIR" INDICATES FEW OR NO CLOUDS BELOW 12,000 FEET WITH NO
SIGNIFICANT WEATHER AND/OR OBSTRUCTIONS TO VISIBILITY.

* = USE WITH CAUTION. THE STATIONS MARKED WITH AN ASTERISK MAY NOT
REPORT WEATHER SUCH AS PRECIPITATION, FOG, OR THUNDER AND ARE NOT
QUALITY CONTROLLED BY NWS.

THE REMARK "TC" DENOTES TEMPERATURE READING IN DEGREES CELSIUS.

GAZ001>058-211100-
NORTH GEORGIA

CITY           SKY/WX    TMP DP  RH WIND       PRES   REMARKS
ATLANTA        MOCLDY    68  63  84 CALM      30.15R
ATHENS         FAIR      66  66 100 CALM      30.15R
CHAMBLEE       FAIR      66  64  93 CALM      30.15R
PEACHTREE CITY FAIR      63  62  97 CALM      30.14S
ROME           FAIR      65  65 100 CALM      30.14R
WEST ATLANTA   FAIR      65  65 100 CALM      30.15R
GAINESVILLE    FAIR      65  65 100 CALM      30.18R
CARTERSVILLE   FAIR      65  62  90 CALM      30.16R


CITY           SKY/WX    TMP DP  RH WIND       PRES   REMARKS
DALTON*        FAIR      64  64 100 CALM      30.16R
LAWRENCEVILLE* FAIR      66  65  96 CALM        N/A
MARIETTA       MOCLDY    65  61  87 CALM      30.15R
KENNESAW*      FAIR      66  61  84 CALM      30.16R
CANTON*        FAIR      66  64  94 CALM      30.18R
BLAIRSVILLE*   FAIR      61  61  99 S3        30.20R FOG
$$

GAZ059>098-102>109-211100-
CENTRAL GEORGIA

CITY           SKY/WX    TMP DP  RH WIND       PRES   REMARKS
AUGUSTA-BUSH   FOG       64  64 100 CALM      30.15R VSB 1/2
AUGUSTA-DANIEL FAIR      68  65  90 SE3       30.16R
COLUMBUS       CLOUDY    68  64  87 N3        30.11R
MACON          FAIR      67  66  97 CALM      30.13R
ROBINS AFB     PTCLDY    67  66  97 CALM      30.11S


CITY           SKY/WX    TMP DP  RH WIND       PRES   REMARKS
LAGRANGE*      MOCLDY    67  67  98 CALM      30.12S
SYLVANIA*      CLOUDY    70  70 100 NE3       30.15R FOG
MILLEDGEVILLE* CLOUDY    68  68 100 CALM      30.15R FOG
$$

GAZ099>101-110>166-211100-
SOUTH GEORGIA

CITY           SKY/WX    TMP DP  RH WIND       PRES   REMARKS
SAVANNAH       CLOUDY    70  69  97 N7        30.13R
VALDOSTA       CLOUDY    71  70  96 E6        30.07R
ALMA           LGT RAIN  71  69  93 CALM      30.10R
ST SIMONS      FAIR      75  73  93 E6        30.09S
ALBANY         CLOUDY    70  68  93 NE9       30.10R
MOODY AFB      CLOUDY    71  71 100 E7        30.06S
BRUNSWICK      FAIR      70  68  94 E3        30.11R


CITY           SKY/WX    TMP DP  RH WIND       PRES   REMARKS
BAINBRIDGE*    CLOUDY    70  70 100 E7        30.05S
MOULTRIE*      CLOUDY    70  70 100 E5        30.08R
VIDALIA*       FOG       68  64  88 NE5       30.13R VSB 1/2
WAYCROSS*      CLOUDY    72  69  90 SE6       30.10R
DOUGLAS*       CLOUDY    70  70 100 E3        30.11R
$$



USA.gov is the U.S. government's official web portal to all federal, state and local government web resources and services.